Location: Dittelspoint
(48.7198°N, 10.7214°E)
Time: 02:28:14
(UTC+00:00)

Ariane Rocket - Pass Details

Date: 09 April 2020
Orbit: 761 x 769 km, 98.7° (Epoch: 26 May)

Event Time Altitude Azimuth Distance (km) Brightness Sun altitude
Rises 18:26:19 0° 160° (SSE) 3,218 5.9 -5.0°
Reaches altitude 10° 18:28:37 10° 160° (SSE) 2,295 5.1 -5.3°
Maximum altitude 18:33:40 82° 73° (ENE) 777 3.0 -6.1°
Drops below altitude 10° 18:38:46 10° 347° (NNW) 2,308 6.0 -6.9°
Sets 18:41:04 0° 346° (NNW) 3,237 6.8 -7.3°
